When you browse on this site, cookies collect data to enhance your experience and personalize the content and advertising you see.
Visit our Privacy Policy to learn more. By continuing to use the site, you agree to this use of cookies and data.
  • Em Portugal
  • Lista de países
  • Para 7 dias
  • Temperatura da água
  • Mapa do tempo
  • Widgets de tempo
  • user-avatar
    Iniciar Sessão

    Previsão horária em Liège

    Hoje, 30 Maio, Sábado

    Tempo Temperatura Precipitação Vento Pressão Humidade
    00:00 +11°C° 0 mm 3 m/s 758 mmHg 76%
    01:00 +11°C° 0 mm 3 m/s 758 mmHg 76%
    02:00 +12°C° 0 mm 2 m/s 758 mmHg 77%
    03:00 +10°C° 0 mm 2 m/s 758 mmHg 77%
    04:00 +12°C° 0 mm 2 m/s 758 mmHg 74%
    05:00 +14°C° 0 mm 2 m/s 758 mmHg 71%
    06:00 +15°C° 0 mm 2 m/s 758 mmHg 68%
    07:00 +17°C° 0 mm 3 m/s 758 mmHg 62%
    08:00 +18°C° 0 mm 4 m/s 758 mmHg 56%
    09:00 +20°C° 0 mm 4 m/s 758 mmHg 50%
    10:00 +20°C° 0 mm 4 m/s 757 mmHg 49%
    11:00 +21°C° 0 mm 4 m/s 757 mmHg 48%
    12:00 +21°C° 0 mm 4 m/s 757 mmHg 48%
    13:00 +22°C° 0 mm 4 m/s 757 mmHg 47%
    14:00 +22°C° 0 mm 4 m/s 757 mmHg 45%
    15:00 +22°C° 0 mm 4 m/s 756 mmHg 44%
    16:00 +21°C° 0 mm 4 m/s 756 mmHg 49%
    17:00 +20°C° 0 mm 4 m/s 756 mmHg 54%
    18:00 +19°C° 0 mm 4 m/s 756 mmHg 59%
    19:00 +17°C° 0 mm 3 m/s 757 mmHg 61%
    20:00 +16°C° 0 mm 3 m/s 757 mmHg 62%
    21:00 +13°C° 0 mm 3 m/s 757 mmHg 64%
    22:00 +12°C° 0 mm 3 m/s 757 mmHg 67%
    23:00 +12°C° 0 mm 2 m/s 757 mmHg 69%

    Amanhã, 31 Maio, Domingo

    Tempo Temperatura Precipitação Vento Pressão Humidade
    00:00 +10°C° 0 mm 2 m/s 758 mmHg 72%
    01:00 +10°C° 0 mm 2 m/s 757 mmHg 75%
    02:00 +9°C° 0 mm 2 m/s 757 mmHg 79%
    03:00 +10°C° 0 mm 1 m/s 757 mmHg 82%
    04:00 +10°C° 0 mm 2 m/s 757 mmHg 78%
    05:00 +13°C° 0 mm 2 m/s 757 mmHg 75%
    06:00 +14°C° 0 mm 2 m/s 758 mmHg 72%
    07:00 +14°C° 0 mm 3 m/s 758 mmHg 66%
    08:00 +17°C° 0 mm 4 m/s 758 mmHg 60%
    09:00 +17°C° 0 mm 5 m/s 758 mmHg 55%
    10:00 +19°C° 0 mm 5 m/s 757 mmHg 51%
    11:00 +19°C° 0 mm 5 m/s 757 mmHg 47%
    12:00 +20°C° 0 mm 5 m/s 757 mmHg 43%
    13:00 +20°C° 0 mm 5 m/s 757 mmHg 44%
    14:00 +20°C° 0 mm 5 m/s 756 mmHg 46%
    15:00 +21°C° 0 mm 5 m/s 756 mmHg 47%
    16:00 +20°C° 0 mm 4 m/s 756 mmHg 53%
    17:00 +19°C° 0 mm 4 m/s 756 mmHg 58%
    18:00 +18°C° 0 mm 4 m/s 756 mmHg 64%
    19:00 +17°C° 0 mm 3 m/s 756 mmHg 66%
    20:00 +16°C° 0 mm 3 m/s 756 mmHg 68%
    21:00 +13°C° 0 mm 3 m/s 756 mmHg 71%
    22:00 +13°C° 0 mm 3 m/s 757 mmHg 74%
    23:00 +12°C° 0 mm 3 m/s 757 mmHg 77%

    Depois de amanhã, 1 Junho, Segunda-feira

    Tempo Temperatura Precipitação Vento Pressão Humidade
    00:00 +12°C° 0 mm 2 m/s 757 mmHg 80%
    01:00 +12°C° 0 mm 2 m/s 757 mmHg 84%
    02:00 +10°C° 0 mm 2 m/s 757 mmHg 87%
    03:00 +10°C° 0 mm 2 m/s 756 mmHg 90%
    04:00 +11°C° 0 mm 3 m/s 757 mmHg 85%
    05:00 +12°C° 0 mm 3 m/s 757 mmHg 81%
    06:00 +14°C° 0 mm 3 m/s 757 mmHg 77%
    07:00 +17°C° 0 mm 4 m/s 757 mmHg 70%
    08:00 +18°C° 0 mm 4 m/s 756 mmHg 63%
    09:00 +20°C° 0 mm 5 m/s 756 mmHg 57%
    10:00 +21°C° 0 mm 5 m/s 756 mmHg 54%
    11:00 +22°C° 0 mm 5 m/s 756 mmHg 51%
    12:00 +23°C° 0 mm 4 m/s 756 mmHg 48%
    13:00 +25°C° 0 mm 4 m/s 755 mmHg 48%
    14:00 +25°C° 0 mm 4 m/s 755 mmHg 47%
    15:00 +25°C° 0 mm 4 m/s 755 mmHg 46%
    16:00 +25°C° 0 mm 4 m/s 755 mmHg 51%
    17:00 +24°C° 0 mm 3 m/s 755 mmHg 56%
    18:00 +22°C° 0 mm 3 m/s 755 mmHg 61%
    19:00 +20°C° 0 mm 3 m/s 755 mmHg 65%
    20:00 +18°C° 0 mm 3 m/s 755 mmHg 69%
    21:00 +17°C° 0 mm 3 m/s 755 mmHg 73%
    22:00 +16°C° 0 mm 3 m/s 755 mmHg 75%
    23:00 +14°C° 0 mm 3 m/s 755 mmHg 78%

    2 Junho, Terça-feira

    Tempo Temperatura Precipitação Vento Pressão Humidade
    00:00 +14°C° 0 mm 3 m/s 755 mmHg 80%
    01:00 +13°C° 0 mm 3 m/s 755 mmHg 80%
    02:00 +13°C° 0 mm 3 m/s 755 mmHg 81%
    03:00 +12°C° 0 mm 3 m/s 755 mmHg 81%
    04:00 +13°C° 0 mm 3 m/s 755 mmHg 77%
    05:00 +16°C° 0 mm 3 m/s 754 mmHg 72%
    06:00 +17°C° 0 mm 3 m/s 754 mmHg 67%
    07:00 +18°C° 0 mm 3 m/s 754 mmHg 62%
    08:00 +20°C° 0 mm 4 m/s 754 mmHg 56%
    09:00 +22°C° 0 mm 4 m/s 754 mmHg 50%
    10:00 +23°C° 0 mm 4 m/s 753 mmHg 48%
    11:00 +25°C° 0 mm 4 m/s 753 mmHg 46%
    12:00 +25°C° 0 mm 4 m/s 753 mmHg 43%
    13:00 +26°C° 0 mm 5 m/s 752 mmHg 44%
    14:00 +26°C° 0 mm 5 m/s 751 mmHg 44%
    15:00 +26°C° 0 mm 5 m/s 751 mmHg 44%
    16:00 +25°C° 0 mm 4 m/s 750 mmHg 49%
    17:00 +23°C° 0 mm 4 m/s 750 mmHg 55%
    18:00 +22°C° 0 mm 3 m/s 749 mmHg 60%
    19:00 +20°C° 0 mm 3 m/s 749 mmHg 63%
    20:00 +18°C° 0 mm 3 m/s 749 mmHg 66%
    21:00 +16°C° 0 mm 3 m/s 749 mmHg 69%
    22:00 +16°C° 0 mm 3 m/s 749 mmHg 72%
    23:00 +14°C° 0 mm 3 m/s 749 mmHg 74%

    3 Junho, Quarta-feira

    Tempo Temperatura Precipitação Vento Pressão Humidade
    00:00 +13°C° 0 mm 3 m/s 748 mmHg 77%
    01:00 +13°C° 0 mm 3 m/s 748 mmHg 76%
    02:00 +13°C° 0 mm 3 m/s 748 mmHg 75%
    03:00 +13°C° 0 mm 3 m/s 748 mmHg 75%
    04:00 +14°C° 0 mm 4 m/s 748 mmHg 71%
    05:00 +15°C° 0 mm 4 m/s 748 mmHg 68%
    06:00 +17°C° 0 mm 4 m/s 747 mmHg 65%
    07:00 +17°C° 0 mm 5 m/s 747 mmHg 59%
    08:00 +20°C° 0 mm 5 m/s 748 mmHg 54%
    09:00 +22°C° 0 mm 6 m/s 748 mmHg 48%
    10:00 +23°C° 0 mm 6 m/s 747 mmHg 46%
    11:00 +24°C° 0 mm 6 m/s 747 mmHg 44%
    12:00 +26°C° 0 mm 6 m/s 747 mmHg 41%
    13:00 +26°C° 0 mm 6 m/s 747 mmHg 42%
    14:00 +26°C° 0 mm 6 m/s 746 mmHg 42%
    15:00 +26°C° 0 mm 5 m/s 746 mmHg 43%
    16:00 +25°C° 0 mm 5 m/s 746 mmHg 48%
    17:00 +25°C° 0 mm 4 m/s 746 mmHg 54%
    18:00 +24°C° 0 mm 3 m/s 746 mmHg 60%
    19:00 +21°C° 0 mm 3 m/s 747 mmHg 62%
    20:00 +19°C° 0 mm 3 m/s 747 mmHg 65%
    21:00 +18°C° 0 mm 3 m/s 748 mmHg 67%
    22:00 +17°C° 0 mm 3 m/s 748 mmHg 70%
    23:00 +16°C° 0 mm 3 m/s 748 mmHg 73%

    4 Junho, Quinta-feira

    Tempo Temperatura Precipitação Vento Pressão Humidade
    00:00 +16°C° 0 mm 3 m/s 748 mmHg 75%
    01:00 +14°C° 0 mm 3 m/s 748 mmHg 78%
    02:00 +14°C° 0 mm 2 m/s 748 mmHg 81%
    03:00 +14°C° 0 mm 2 m/s 747 mmHg 83%
    04:00 +15°C° 0 mm 2 m/s 748 mmHg 80%
    05:00 +16°C° 0 mm 2 m/s 748 mmHg 76%
    06:00 +18°C° 0 mm 2 m/s 748 mmHg 72%
    07:00 +19°C° 0 mm 2 m/s 748 mmHg 65%
    08:00 +21°C° 0 mm 3 m/s 748 mmHg 59%
    09:00 +24°C° 0 mm 3 m/s 747 mmHg 52%
    10:00 +25°C° 0 mm 3 m/s 747 mmHg 48%
    11:00 +26°C° 0 mm 3 m/s 747 mmHg 45%
    12:00 +27°C° 0 mm 3 m/s 747 mmHg 42%
    13:00 +27°C° 0 mm 3 m/s 746 mmHg 41%
    14:00 +27°C° 0 mm 3 m/s 746 mmHg 41%
    15:00 +27°C° 0 mm 2 m/s 745 mmHg 40%
    16:00 +26°C° 0 mm 2 m/s 745 mmHg 46%
    17:00 +25°C° 0 mm 2 m/s 745 mmHg 52%
    18:00 +24°C° 0 mm 1 m/s 745 mmHg 58%
    19:00 +22°C° 0.1 mm 1 m/s 745 mmHg 62%
    20:00 +20°C° 0.1 mm 1 m/s 745 mmHg 66%
    21:00 +18°C° 0.1 mm 1 m/s 745 mmHg 69%
    22:00 +16°C° 0 mm 1 m/s 745 mmHg 73%
    23:00 +15°C° 0 mm 1 m/s 744 mmHg 76%
    Mostrar mais